Weather History for Victorville, CA

Change the Weather History Date:

Tuesday, April 22, 2014

  Actual Average (KSBD) Record (KSBD)
Temperature  
Mean Temperature 61 °F -  
Max Temperature 71 °F 75 °F 86 °F (2012)
Min Temperature 51 °F 46 °F 51 °F (2013)
Degree Days  
Heating Degree Days 4    
Growing Degree Days 11 (Base 50)    
Moisture  
Dew Point 27 °F    
Average Humidity 28    
Maximum Humidity 48    
Minimum Humidity 13    
Precipitation  
Precipitation 0.00 in - - ()
Sea Level Pressure  
Sea Level Pressure 29.92 in    
Wind  
Wind Speed 11 mph (WSW)    
Max Wind Speed 29 mph    
Max Gust Speed 37 mph    
Visibility 10 miles    
Events      
Averages and records for this station are not official NWS values.
T = Trace of Precipitation, MM = Missing Value Source: NWS Daily Summary

Daily Weather History Graph

Daily Weather History Graph

Search for Another Location

Airport:

Trip Planner

Search our weather history database for the weather conditions in past years. The results will help you decide how hot, cold, wet, or windy it might be!

Date:

Astronomy

Apr. 22, 2014 Rise Set
Actual Time 6:09 AM PDT 7:27 PM PDT
Civil Twilight 5:42 AM PDT 7:53 PM PDT
Nautical Twilight 5:11 AM PDT 8:25 PM PDT
Astronomical Twilight 4:38 AM PDT 8:57 PM PDT
Moon 1:44 AM PDT (4/22) 12:50 PM PDT (4/22)
Length of Visible Light 14h 10m
Length of Day
13h 17m
Last Quarter, 45% of the Moon is Illuminated
Apr 22
Last Quarter
Apr 28
New
May 6
First Quarter
May 14
Full
May 21
Last Quarter

Hourly Weather History & Observations

Time (PDT) Temp. Dew Point Humidity Pressure Visibility Wind Dir Wind Speed Gust Speed Precip Events Conditions
12:15 AM 62.6 °F 30.2 °F 30% 29.97 in 10.0 mi WSW 4.6 mph - N/A   Clear
12:35 AM 62.6 °F 30.2 °F 30% 29.97 in 10.0 mi Calm Calm - N/A   Clear
12:55 AM 62.6 °F 30.2 °F 30% 29.97 in 10.0 mi SW 4.6 mph - N/A   Clear
1:15 AM 60.8 °F 30.2 °F 31% 29.96 in 10.0 mi WSW 5.8 mph - N/A   Clear
1:35 AM 60.8 °F 33.8 °F 36% 29.96 in 10.0 mi WSW 4.6 mph - N/A   Clear
1:55 AM 60.8 °F 35.6 °F 39% 29.95 in 10.0 mi SSW 5.8 mph - N/A   Clear
2:15 AM 60.8 °F 35.6 °F 39% 29.95 in 10.0 mi SW 11.5 mph - N/A   Clear
2:35 AM 62.6 °F 32.0 °F 32% 29.94 in 10.0 mi SSW 13.8 mph 19.6 mph N/A   Clear
2:55 AM 60.8 °F 33.8 °F 36% 29.93 in 10.0 mi South 10.4 mph - N/A   Clear
3:15 AM 60.8 °F 35.6 °F 39% 29.93 in 10.0 mi South 10.4 mph - N/A   Clear
3:35 AM 59.0 °F 35.6 °F 42% 29.92 in 10.0 mi South 8.1 mph - N/A   Clear
3:55 AM 57.2 °F 35.6 °F 44% 29.92 in 10.0 mi SSW 5.8 mph - N/A   Clear
4:15 AM 57.2 °F 35.6 °F 44% 29.92 in 10.0 mi SSW 6.9 mph - N/A   Clear
4:35 AM 57.2 °F 37.4 °F 48% 29.92 in 10.0 mi SSW 5.8 mph - N/A   Clear
4:55 AM 57.2 °F 37.4 °F 48% 29.91 in 10.0 mi South 5.8 mph - N/A   Clear
5:35 AM 59.0 °F 33.8 °F 39% 29.91 in 10.0 mi South 8.1 mph - N/A   Clear
5:55 AM 57.2 °F 32.0 °F 38% 29.91 in 10.0 mi South 5.8 mph - N/A   Clear
6:15 AM 57.2 °F 32.0 °F 38% 29.91 in 10.0 mi SSW 4.6 mph - N/A   Clear
6:35 AM 55.4 °F 32.0 °F 41% 29.91 in 10.0 mi SW 3.5 mph - N/A   Clear
6:55 AM 55.4 °F 33.8 °F 44% 29.91 in 10.0 mi SW 3.5 mph - N/A   Scattered Clouds
7:15 AM 57.2 °F 33.8 °F 41% 29.92 in 10.0 mi Calm Calm - N/A   Scattered Clouds
7:35 AM 59.0 °F 33.8 °F 39% 29.92 in 10.0 mi Calm Calm - N/A   Scattered Clouds
7:55 AM 59.0 °F 35.6 °F 42% 29.92 in 10.0 mi Calm Calm - N/A   Scattered Clouds
8:15 AM 59.0 °F 32.0 °F 36% 29.92 in 7.0 mi West 5.8 mph - N/A   Scattered Clouds
8:35 AM 60.8 °F 32.0 °F 34% 29.92 in 10.0 mi West 8.1 mph - N/A   Clear
8:55 AM 60.8 °F 32.0 °F 34% 29.92 in 10.0 mi WSW 6.9 mph - N/A   Scattered Clouds
9:15 AM 60.8 °F 33.8 °F 36% 29.92 in 10.0 mi West 10.4 mph - N/A   Scattered Clouds
9:35 AM 62.6 °F 32.0 °F 32% 29.92 in 10.0 mi West 10.4 mph - N/A   Clear
9:55 AM 64.4 °F 32.0 °F 30% 29.92 in 10.0 mi WSW 11.5 mph 17.3 mph N/A   Scattered Clouds
10:15 AM 66.2 °F 30.2 °F 26% 29.92 in 10.0 mi West 17.3 mph 21.9 mph N/A   Scattered Clouds
10:35 AM 66.2 °F 30.2 °F 26% 29.93 in 10.0 mi West 12.7 mph 21.9 mph N/A   Scattered Clouds
10:55 AM 68.0 °F 30.2 °F 24% 29.92 in 10.0 mi West 13.8 mph 18.4 mph N/A   Scattered Clouds
11:15 AM 69.8 °F 30.2 °F 23% 29.92 in 10.0 mi West 11.5 mph 17.3 mph N/A   Scattered Clouds
11:35 AM 69.8 °F 30.2 °F 23% 29.91 in 10.0 mi WNW 11.5 mph - N/A   Scattered Clouds
11:55 AM 71.6 °F 28.4 °F 20% 29.91 in 10.0 mi WSW 11.5 mph 20.7 mph N/A   Scattered Clouds
12:15 PM 71.6 °F 23.0 °F 16% 29.90 in 10.0 mi West 17.3 mph 25.3 mph N/A   Scattered Clouds
12:35 PM 69.8 °F 21.2 °F 16% 29.91 in 10.0 mi West 23.0 mph 32.2 mph N/A   Clear
12:55 PM 71.6 °F 21.2 °F 15% 29.90 in 10.0 mi West 20.7 mph 28.8 mph N/A   Scattered Clouds
1:15 PM 69.8 °F 23.0 °F 17% 29.91 in 7.0 mi West 20.7 mph 31.1 mph N/A   Scattered Clouds
1:35 PM 69.8 °F 30.2 °F 23% 29.90 in 5.0 mi WNW 28.8 mph 36.8 mph N/A   Haze
1:55 PM 69.8 °F 28.4 °F 21% 29.91 in 4.0 mi West 26.5 mph 34.5 mph N/A   Haze
2:15 PM 69.8 °F 30.2 °F 23% 29.90 in 7.0 mi WNW 27.6 mph 36.8 mph N/A   Scattered Clouds
2:35 PM 68.0 °F 30.2 °F 24% 29.91 in 10.0 mi West 19.6 mph 31.1 mph N/A   Scattered Clouds
2:55 PM 68.0 °F 28.4 °F 23% 29.91 in 10.0 mi WNW 21.9 mph 29.9 mph N/A   Scattered Clouds
3:15 PM 68.0 °F 24.8 °F 20% 29.91 in 10.0 mi West 19.6 mph 31.1 mph N/A   Scattered Clouds
3:35 PM 68.0 °F 24.8 °F 20% 29.91 in 10.0 mi West 23.0 mph 33.4 mph N/A   Scattered Clouds
3:55 PM 68.0 °F 19.4 °F 16% 29.90 in 10.0 mi WNW 26.5 mph 33.4 mph N/A   Scattered Clouds
4:15 PM 68.0 °F 21.2 °F 17% 29.90 in 10.0 mi West 21.9 mph 32.2 mph N/A   Clear
4:35 PM 68.0 °F 21.2 °F 17% 29.90 in 10.0 mi West 23.0 mph 32.2 mph N/A   Clear
4:55 PM 66.2 °F 19.4 °F 17% 29.90 in 10.0 mi WNW 21.9 mph 31.1 mph N/A   Scattered Clouds
5:15 PM 66.2 °F 17.6 °F 15% 29.90 in 10.0 mi WNW 23.0 mph 28.8 mph N/A   Clear
5:35 PM 66.2 °F 15.8 °F 14% 29.89 in 10.0 mi WNW 25.3 mph 29.9 mph N/A   Clear
5:55 PM 66.2 °F 14.0 °F 13% 29.90 in 10.0 mi WNW 20.7 mph 29.9 mph N/A   Clear
6:15 PM 64.4 °F 19.4 °F 18% 29.90 in 10.0 mi WNW 21.9 mph 27.6 mph N/A   Clear
6:35 PM 62.6 °F 17.6 °F 18% 29.89 in 10.0 mi WNW 23.0 mph 28.8 mph N/A   Clear
6:55 PM 60.8 °F 17.6 °F 19% 29.89 in 10.0 mi WNW 21.9 mph 28.8 mph N/A   Clear
7:15 PM 60.8 °F 17.6 °F 19% 29.88 in 10.0 mi West 27.6 mph 33.4 mph N/A   Clear
7:35 PM 57.2 °F 17.6 °F 21% 29.89 in 10.0 mi West 24.2 mph 33.4 mph N/A   Clear
7:55 PM 57.2 °F 17.6 °F 21% 29.89 in 10.0 mi West 23.0 mph 33.4 mph N/A   Clear
8:15 PM 55.4 °F 17.6 °F 23% 29.91 in 10.0 mi WSW 21.9 mph 29.9 mph N/A   Clear
8:35 PM 55.4 °F 17.6 °F 23% 29.92 in 10.0 mi WSW 18.4 mph 25.3 mph N/A   Clear
8:55 PM 53.6 °F 19.4 °F 26% 29.90 in 10.0 mi West 21.9 mph 29.9 mph N/A   Clear
9:15 PM 53.6 °F 19.4 °F 26% 29.93 in 10.0 mi West 18.4 mph 26.5 mph N/A   Clear
9:35 PM 53.6 °F 19.4 °F 26% 29.93 in 10.0 mi WSW 20.7 mph 24.2 mph N/A   Unknown
9:55 PM 53.6 °F 19.4 °F 26% 29.93 in 10.0 mi WSW 21.9 mph 26.5 mph N/A   Unknown
10:15 PM 53.6 °F 19.4 °F 26% 29.93 in 10.0 mi WSW 19.6 mph 26.5 mph N/A   Unknown
10:35 PM 51.8 °F 17.6 °F 26% 29.95 in 10.0 mi Calm Calm - N/A   Unknown
10:55 PM 53.6 °F 17.6 °F 24% 29.95 in 10.0 mi WSW 10.4 mph 17.3 mph N/A   Unknown
11:15 PM 53.6 °F 17.6 °F 24% 29.94 in 10.0 mi WSW 16.1 mph - N/A   Unknown
11:35 PM 53.6 °F 19.4 °F 26% 29.94 in 10.0 mi West 17.3 mph 24.2 mph N/A   Unknown
11:55 PM 53.6 °F 19.4 °F 26% 29.94 in 10.0 mi WSW 20.7 mph 26.5 mph N/A   Unknown